[[{"header":{"parameterUnit":"m.s-1","parameterCategory":1,"la1":30.2991,"la2":30.254,"lo1":-89.0895,"lo2":-89.0444,"dy":0.0017,"dx":0.0017,"nx":28,"ny":28,"refTime":"2025-08-15T09:00:00:Z","depth":0,"parameterNumber":2,"parameterNumberName":"U-component_of_WINDS"},"data":[0,0,0,0,0,0,0,0,0,0,0,0,0,0,0,0,0,0,0,0,0,0,0,0,0,0,0,0,0,0,0,0,0,0,0,0,0,0,0,0,0,0,0,0,0,0,0,0,0,0,0,0,0,0,0,0,0,0,2.1004,2.1005,0,2.1055,2.1055,2.1056,2.0934,2.093,2.0926,2.0923,2.0977,2.0982,2.0987,0,0,0,0,0,0,0,0,0,0,0,0,0,2.0804,2.0808,2.1004,2.1005,2.1005,2.1055,2.1055,2.1056,2.0935,2.093,2.0925,2.0921,2.0976,2.0982,2.0988,0,0,0,0,0,0,0,0,0,0,0,0,0,2.0877,2.081,2.1004,2.0951,2.0946,2.1054,2.1055,2.1056,2.0936,2.093,2.0924,2.0919,2.0974,2.0981,2.0988,2.1151,0,0,2.1012,2.1015,0,0,0,0,0,0,0,0,2.0873,2.0884,2.0958,2.0955,2.095,2.0982,2.1004,2.1088,2.0937,2.094,2.0923,2.0916,2.0984,2.099,2.1012,2.1154,2.1156,2.1012,2.1017,2.102,2.1022,0,0,0,0,0,0,0,2.0868,2.0881,2.1024,2.0959,2.0954,2.0925,2.0929,2.102,2.0994,2.0939,2.093,2.0938,2.098,2.1005,2.1013,2.1157,2.1012,2.1019,2.1023,2.1026,2.1432,2.1438,0,0,0,0,0,0,2.0869,2.0878,2.1023,2.1026,2.0896,2.0933,2.0937,2.0978,2.0992,2.0989,2.0943,2.0932,2.0995,2.1004,2.1014,2.1204,2.102,2.1027,2.1032,2.1426,2.1433,2.144,0,0,0,0,0,0,2.0865,2.0883,2.102,2.0949,2.0965,2.0943,2.0989,2.0982,2.1006,2.0995,2.099,2.0973,2.0991,2.1004,2.1117,2.1204,2.1031,2.1037,2.1418,2.1428,2.1437,2.1586,0,0,0,0,0,0,2.086,2.0883,2.0944,2.0952,2.0969,2.1123,2.0994,2.0987,2.1019,2.1006,2.1022,2.1019,2.0987,2.1107,2.1125,2.1211,2.1043,2.1411,2.1423,2.1434,2.1573,2.1599,2.1621,0,0,0,0,0,2.0853,2.0985,2.0948,2.0966,2.1045,2.1128,2.1138,2.1098,2.1027,2.1088,2.1081,2.1019,2.1192,2.1119,2.1139,2.1229,2.1405,2.1419,2.1433,2.1562,2.1594,2.1621,0,0,0,0,0,0,2.099,2.0985,2.0944,2.1082,2.1106,2.1107,2.1184,2.1133,2.1179,2.1164,2.1113,2.1118,2.1241,2.1247,2.1166,2.1386,2.1286,2.1305,2.1378,2.1408,2.1432,2.1427,2.105,0,0,0,0,0,2.1036,2.1103,2.1096,2.1218,2.1232,2.1206,2.1241,2.1208,2.1231,2.1241,2.1242,2.1268,2.1327,2.1368,2.1423,2.1573,2.1574,2.1645,2.1669,2.1689,2.1705,2.1783,2.1814,2.1486,2.1486,2.1486,0,0,2.1132,2.1138,2.1183,2.1246,2.126,2.1331,2.1216,2.1296,2.1348,2.1254,2.136,2.1362,2.1387,2.152,2.1578,2.1528,2.1796,2.1707,2.1723,2.1728,2.1801,2.1832,2.1859,2.1496,2.1494,2.1492,0,0,2.1342,2.1354,2.1456,2.1473,2.1496,2.1478,2.1503,2.1512,2.1508,2.1614,2.1544,2.1606,2.1711,2.1731,2.1755,2.1972,2.1916,2.1991,2.2117,2.2194,2.2219,2.2242,2.2317,2.2345,2.2008,2.2008,2.2008,0,2.1458,2.1561,2.1515,2.1599,2.1628,2.1545,2.1648,2.1667,2.1708,2.173,2.1673,2.1801,2.1813,2.1947,2.2,2.2023,2.2049,2.1989,2.2219,2.2241,2.2262,2.2333,2.2362,2.2017,2.2016,2.2015,2.2014,0,2.1702,2.1775,2.1855,2.1894,2.1932,2.2026,2.1994,2.2038,2.2002,2.1989,2.2098,2.2108,2.2162,2.2192,2.2159,2.2322,2.229,2.2228,2.2126,2.2303,2.2369,2.2396,2.203,2.2027,2.2024,2.2022,0,0,2.2,2.2011,2.2041,2.2057,2.2077,2.2132,2.2222,2.2273,2.2311,2.2343,2.2415,2.2505,2.2447,2.2474,2.2442,2.2509,2.2678,2.2438,2.2437,2.248,2.2857,2.2902,2.2935,2.2641,2.2646,2.265,2.2854,0,2.2206,2.2357,2.2318,2.2469,2.2535,2.2456,2.2534,2.2555,2.2545,2.26,2.259,2.2654,2.2573,2.2588,2.2652,2.2644,2.2752,2.2629,2.2708,2.2711,2.2702,2.297,2.3019,2.321,2.2879,2.2884,2.2887,0,2.2466,2.2505,2.2663,2.2669,2.2695,2.2766,2.2809,2.2862,2.2884,2.2872,2.2902,2.2856,2.2944,2.2843,2.2962,2.2879,2.2909,2.2911,2.2917,2.2921,2.2809,2.298,2.3271,2.3299,2.2928,2.2924,2.2922,0,2.2664,2.2757,2.2862,2.2879,2.289,2.2941,2.2948,2.2963,2.2996,2.3035,2.3056,2.3105,2.3131,2.317,2.3138,2.3068,2.3263,2.3159,2.3255,2.3256,2.3298,2.3296,2.3596,2.3321,2.3321,2.332,2.332,0,2.2897,2.2996,2.2951,2.3016,2.3124,2.3078,2.3187,2.3185,2.3199,2.3262,2.3199,2.3259,2.3214,2.3271,2.3246,2.3348,2.3361,2.3354,2.3346,2.3359,2.3359,2.3377,2.3362,2.3328,2.3326,2.3325,2.3323,0,2.3137,2.3111,2.322,2.3221,2.3223,2.3303,2.3304,2.3364,2.335,2.343,2.3446,2.3425,2.3488,2.346,2.3528,2.3511,2.3641,2.3617,2.3634,2.3626,2.3723,2.3713,2.4043,2.4084,2.3785,2.3788,2.379,0,2.3286,2.336,2.3368,2.3405,2.3416,2.3477,2.351,2.3468,2.3505,2.3534,2.359,2.3648,2.3691,2.3796,2.3787,2.3837,2.3812,2.3925,2.382,2.3829,2.3812,2.3807,2.3813,2.3945,2.3949,2.3952,2.3954,0,2.3553,2.3536,2.3586,2.3631,2.3671,2.3705,2.3733,2.3768,2.3726,2.3771,2.3834,2.3868,2.3935,2.3993,2.4038,2.4045,2.3993,2.3987,2.4011,2.4024,2.403,2.4026,2.3689,2.3979,2.3977,2.3975,2.3974,2.3973,2.3751,2.3812,2.3827,2.3883,2.39,2.3928,2.3983,2.3975,2.4027,2.4078,2.405,2.4124,2.4142,2.4196,2.421,2.4267,2.4223,2.4259,2.4268,2.4277,2.4288,2.4023,2.4275,2.4275,2.4274,2.4273,2.4273,0,2.4012,2.4018,2.4071,2.4111,2.4156,2.4102,2.413,2.4171,2.4236,2.4257,2.4301,2.4373,2.4428,2.4423,2.4474,2.452,2.4497,2.4535,2.453,2.4532,2.4326,2.4299,2.4552,2.4552,2.4552,2.4552,2.4552,2.4552,2.4154,2.4253,2.4238,2.4346,2.435,2.4421,2.4441,2.4466,2.4482,2.4565,2.461,2.4606,2.4616,2.4667,2.4715,2.4712,2.4733,2.4779,2.4767,2.4575,2.4547,2.452,2.4494,2.4784,2.4785,2.4968,2.497,2.4971]},{"header":{"parameterUnit":"m.s-1","parameterCategory":1,"la1":30.2991,"la2":30.254,"lo1":-89.0895,"lo2":-89.0444,"dy":0.0017,"dx":0.0017,"nx":28,"ny":28,"refTime":"2025-08-15T09:00:00:Z","depth":0,"parameterNumber":3,"parameterNumberName":"V-component_of_WINDS"},"data":[0,0,0,0,0,0,0,0,0,0,0,0,0,0,0,0,0,0,0,0,0,0,0,0,0,0,0,0,0,0,0,0,0,0,0,0,0,0,0,0,0,0,0,0,0,0,0,0,0,0,0,0,0,0,0,0,0,0,0.9716,0.9716,0,0.9786,0.9787,0.9788,0.9763,0.9761,0.976,0.9758,0.9831,0.9834,0.9837,0,0,0,0,0,0,0,0,0,0,0,0,0,0.9559,0.9562,0.9716,0.9716,0.9717,0.9786,0.9787,0.9788,0.9763,0.9761,0.9759,0.9757,0.983,0.9834,0.9838,0,0,0,0,0,0,0,0,0,0,0,0,0,0.9628,0.9563,0.9715,0.9713,0.9714,0.9786,0.9787,0.9788,0.9763,0.9761,0.9759,0.9757,0.9828,0.9833,0.9838,0.9917,0,0,0.9854,0.9856,0,0,0,0,0,0,0,0,0.9624,0.9634,0.9713,0.9713,0.9714,0.9763,0.9758,0.9831,0.9764,0.9745,0.9758,0.9755,0.981,0.9817,0.9835,0.992,0.9923,0.9854,0.9857,0.9859,0.9861,0,0,0,0,0,0,0,0.9619,0.9631,0.9743,0.9714,0.9715,0.9709,0.9716,0.9772,0.979,0.9746,0.9744,0.9753,0.981,0.983,0.9836,0.9924,0.9854,0.9859,0.9862,0.9864,1.0076,1.0079,0,0,0,0,0,0,0.9614,0.9627,0.9741,0.9746,0.9662,0.9713,0.9721,0.975,0.9789,0.9793,0.9755,0.9752,0.9823,0.9831,0.9839,0.9933,0.9859,0.9864,0.9867,1.0073,1.0077,1.0079,0,0,0,0,0,0,0.9611,0.9625,0.9738,0.9686,0.97,0.9718,0.9751,0.9753,0.9772,0.9796,0.9799,0.9772,0.9821,0.9832,0.9897,0.9935,0.9866,0.9871,1.007,1.0074,1.0078,1.0121,0,0,0,0,0,0,0.9607,0.9624,0.9654,0.9687,0.9703,0.9796,0.9753,0.9756,0.9781,0.9778,0.9813,0.9816,0.982,0.989,0.9902,0.9941,0.9875,1.0067,1.0072,1.0077,1.0117,1.0126,1.0135,0,0,0,0,0,0.9601,0.9664,0.9656,0.967,0.9741,0.9798,0.9807,0.981,0.9784,0.9815,0.983,0.9815,0.9929,0.9897,0.9911,0.9951,1.0065,1.0071,1.0076,1.0113,1.0124,1.0134,0,0,0,0,0,0,0.9636,0.9668,0.9659,0.9735,0.9764,0.9794,0.9832,0.9823,0.986,0.9855,0.9857,0.9865,0.9932,0.9948,0.9912,1.0028,0.9993,1.0002,1.0016,1.0027,1.0036,1.003,0.9879,0,0,0,0,0,0.9652,0.9695,0.9722,0.9785,0.98,0.9814,0.9839,0.9838,0.9869,0.9881,0.9901,0.9931,0.9973,1.0001,1.0041,1.0119,1.0126,1.0153,1.0162,1.0169,1.0177,1.0218,1.0231,1.0099,1.0098,1.0098,0,0,0.9686,0.9709,0.9737,0.9793,0.9815,0.986,0.9824,0.9874,0.9907,0.9889,0.9951,0.9967,1.0,1.0072,1.0105,1.0087,1.0215,1.0177,1.0182,1.0186,1.0226,1.0238,1.0249,1.0102,1.0102,1.0101,0,0,0.9771,0.9793,0.9848,0.9871,0.9906,0.9914,0.9927,0.9959,0.9968,1.0031,1.0018,1.0057,1.013,1.0154,1.0176,1.0269,1.0257,1.0282,1.0329,1.0369,1.038,1.0389,1.0421,1.0433,1.029,1.029,1.029,0,0.9809,0.9877,0.9878,0.9928,0.9953,0.9937,0.9993,1.0015,1.0061,1.0078,1.0058,1.0149,1.0171,1.0247,1.027,1.0288,1.0303,1.0278,1.0378,1.0387,1.0396,1.0427,1.0439,1.0293,1.0292,1.0292,1.0292,0,0.9921,0.9968,1.0009,1.0053,1.0082,1.0135,1.0143,1.0173,1.0169,1.018,1.0244,1.0269,1.0313,1.0331,1.0329,1.0408,1.0396,1.0377,1.0341,1.0411,1.044,1.0452,1.0297,1.0296,1.0295,1.0294,0,0,1.0031,1.0074,1.0089,1.0108,1.0145,1.0181,1.0232,1.0275,1.03,1.0332,1.0375,1.0437,1.0419,1.0444,1.0444,1.0479,1.055,1.0456,1.0457,1.0472,1.0638,1.0652,1.0665,1.0542,1.0545,1.0547,1.0635,0,1.0119,1.0209,1.0211,1.0294,1.0337,1.0322,1.0367,1.0394,1.0405,1.0442,1.0454,1.0498,1.0471,1.0486,1.052,1.0535,1.0584,1.0528,1.0582,1.0584,1.0574,1.0681,1.0696,1.0778,1.0646,1.0648,1.065,0,1.0233,1.0268,1.0355,1.0384,1.0402,1.0442,1.0481,1.0518,1.0548,1.0553,1.058,1.0575,1.0627,1.0589,1.0661,1.0623,1.0645,1.0655,1.0658,1.0663,1.0621,1.0688,1.0804,1.0816,1.0668,1.0666,1.0665,0,1.0304,1.0372,1.0433,1.045,1.0486,1.0514,1.053,1.0558,1.0583,1.0618,1.0634,1.0674,1.0696,1.0727,1.0732,1.0704,1.0804,1.0767,1.0809,1.0809,1.0831,1.083,1.0952,1.0846,1.0845,1.0845,1.0845,0,1.0401,1.0455,1.0465,1.0502,1.0562,1.0563,1.0622,1.0636,1.066,1.07,1.069,1.0727,1.0731,1.077,1.0774,1.0832,1.0842,1.0848,1.0848,1.0849,1.0848,1.0863,1.0858,1.0848,1.0848,1.0847,1.0846,0,1.049,1.0499,1.0564,1.0592,1.06,1.0643,1.0667,1.0702,1.0711,1.0761,1.0773,1.0788,1.0832,1.084,1.0893,1.0896,1.0965,1.096,1.0955,1.0955,1.0997,1.0992,1.1133,1.1151,1.1033,1.1034,1.1035,0,1.0552,1.0593,1.0625,1.065,1.0668,1.0709,1.0735,1.0737,1.0765,1.0801,1.0832,1.0875,1.091,1.0982,1.0997,1.1037,1.1033,1.1079,1.1039,1.1038,1.1033,1.1031,1.1034,1.1087,1.1088,1.1089,1.109,0,1.066,1.0662,1.07,1.0739,1.0769,1.08,1.0829,1.0851,1.0857,1.0888,1.0934,1.0961,1.1014,1.1057,1.1096,1.1113,1.1103,1.1103,1.1115,1.1115,1.1111,1.1113,1.0976,1.11,1.1099,1.1098,1.1097,1.1097,1.0737,1.0772,1.08,1.0842,1.0864,1.0891,1.0925,1.0939,1.0976,1.102,1.1019,1.1068,1.1096,1.1148,1.1167,1.1206,1.1191,1.1208,1.1213,1.1217,1.1221,1.1105,1.1213,1.1213,1.1212,1.1212,1.1212,0,1.0844,1.0861,1.09,1.094,1.0973,1.096,1.0991,1.102,1.1063,1.109,1.1124,1.1176,1.1217,1.1235,1.1276,1.1303,1.1299,1.1314,1.1312,1.1315,1.1232,1.1217,1.1316,1.1316,1.1316,1.1316,1.1316,1.1316,1.0904,1.0963,1.0968,1.1037,1.1053,1.1101,1.112,1.1145,1.1166,1.1224,1.1258,1.127,1.1293,1.1335,1.1372,1.1377,1.1392,1.1408,1.1411,1.1332,1.1321,1.1311,1.1298,1.1412,1.1412,1.1491,1.1492,1.1492]}]]